| time (UTC) | temp F | wind direction | speed MPH | gust MPH | rain 1hr in | rain 24hr in | rain mn in | humidity % | barometer mb |
| 20260509091509 | 55 | 317 | 3.0 | 6.0 | 0.00 | 0.00 | 0.00 | 63 | 1013.9 |
| 20260509090009 | 55 | 343 | 3.0 | 5.0 | 0.00 | 0.00 | 0.00 | 63 | 1013.7 |
| 20260509084508 | 55 | 334 | 3.0 | 7.0 | 0.00 | 0.00 | 0.00 | 62 | 1013.7 |
| 20260509083006 | 54 | 305 | 3.0 | 6.0 | 0.00 | 0.00 | 0.00 | 65 | 1013.6 |
| 20260509081503 | 55 | 338 | 3.0 | 6.0 | 0.00 | 0.00 | 0.00 | 64 | 1013.6 |
| 20260509074559 | 56 | 345 | 3.0 | 6.0 | 0.00 | 0.00 | 0.00 | 61 | 1013.7 |
| 20260509073106 | 57 | 24 | 2.0 | 4.0 | 0.00 | 0.00 | 0.00 | 59 | 1013.6 |
| 20260509071552 | 58 | 352 | 3.0 | 6.0 | 0.00 | 0.00 | 0.00 | 57 | 1013.5 |
| 20260509070051 | 58 | 347 | 3.0 | 6.0 | 0.00 | 0.00 | 0.00 | 58 | 1013.6 |
| 20260509064549 | 58 | 339 | 3.0 | 7.0 | 0.00 | 0.00 | 0.00 | 57 | 1013.6 |
| 20260509063055 | 58 | 347 | 3.0 | 6.0 | 0.00 | 0.00 | 0.00 | 56 | 1013.6 |
| 20260509061605 | 59 | 336 | 2.0 | 6.0 | 0.00 | 0.00 | 0.00 | 53 | 1013.7 |
| 20260509060047 | 60 | 18 | 3.0 | 8.0 | 0.00 | 0.00 | 0.00 | 52 | 1013.8 |
| 20260509054555 | 60 | 352 | 3.0 | 7.0 | 0.00 | 0.00 | 0.00 | 51 | 1013.7 |
| 20260509053057 | 61 | 350 | 4.0 | 10.0 | 0.00 | 0.00 | 0.00 | 51 | 1013.6 |
| 20260509051549 | 60 | 320 | 4.0 | 8.0 | 0.00 | 0.00 | 0.00 | 50 | 1013.6 |
| 20260509050043 | 61 | 348 | 2.0 | 7.0 | 0.00 | 0.00 | 0.00 | 46 | 1013.5 |
| 20260509044548 | 61 | 356 | 3.0 | 6.0 | 0.00 | 0.00 | 0.00 | 45 | 1013.4 |
| 20260509043043 | 62 | 21 | 2.0 | 5.0 | 0.00 | 0.00 | 0.00 | 43 | 1013.2 |
| 20260509041541 | 62 | 14 | 1.0 | 4.0 | 0.00 | 0.00 | 0.00 | 41 | 1013.0 |
| 20260509040042 | 63 | 328 | 2.0 | 5.0 | 0.00 | 0.00 | 0.00 | 39 | 1012.9 |
| 20260509034541 | 63 | 327 | 2.0 | 5.0 | 0.00 | 0.00 | 0.00 | 38 | 1012.7 |
| 20260509033039 | 64 | 340 | 1.0 | 5.0 | 0.00 | 0.00 | 0.00 | 37 | 1012.5 |
| 20260509031538 | 65 | 316 | 1.0 | 3.0 | 0.00 | 0.00 | 0.00 | 35 | 1012.3 |
| 20260509030038 | 67 | 318 | 3.0 | 6.0 | 0.00 | 0.00 | 0.00 | 34 | 1012.1 |
| 20260509024537 | 69 | 322 | 5.0 | 9.0 | 0.00 | 0.00 | 0.00 | 32 | 1011.9 |
| 20260509023039 | 71 | 308 | 5.0 | 8.0 | 0.00 | 0.00 | 0.00 | 29 | 1011.8 |
| 20260509021535 | 72 | 305 | 6.0 | 10.0 | 0.00 | 0.00 | 0.00 | 28 | 1011.7 |
| 20260509020037 | 73 | 352 | 7.0 | 11.0 | 0.00 | 0.00 | 0.00 | 26 | 1011.7 |
| 20260509014535 | 74 | 22 | 4.0 | 12.0 | 0.00 | 0.00 | 0.00 | 27 | 1011.8 |
| 20260509013034 | 74 | 328 | 4.0 | 13.0 | 0.00 | 0.00 | 0.00 | 25 | 1011.8 |
| 20260509011531 | 74 | 309 | 6.0 | 12.0 | 0.00 | 0.00 | 0.00 | 24 | 1011.7 |
| 20260509010031 | 75 | 304 | 8.0 | 14.0 | 0.00 | 0.00 | 0.00 | 25 | 1011.7 |
| 20260509004536 | 75 | 308 | 9.0 | 17.0 | 0.00 | 0.00 | 0.00 | 23 | 1011.7 |
| 20260509003028 | 76 | 328 | 8.0 | 16.0 | 0.00 | 0.00 | 0.00 | 22 | 1011.8 |
| 20260509001527 | 76 | 305 | 8.0 | 16.0 | 0.00 | 0.00 | 0.00 | 21 | 1011.8 |
| 20260509000026 | 76 | 316 | 9.0 | 16.0 | 0.00 | 0.00 | 0.00 | 22 | 1011.6 |
| 20260508234526 | 75 | 331 | 10.0 | 18.0 | 0.00 | 0.00 | 0.00 | 20 | 1011.7 |
| 20260508233026 | 76 | 311 | 9.0 | 19.0 | 0.00 | 0.00 | 0.00 | 22 | 1011.7 |
| 20260508231524 | 76 | 328 | 10.0 | 20.0 | 0.00 | 0.00 | 0.00 | 20 | 1011.7 |
| 20260508230022 | 76 | 316 | 11.0 | 19.0 | 0.00 | 0.00 | 0.00 | 23 | 1011.9 |
| 20260508224527 | 75 | 356 | 12.0 | 20.0 | 0.00 | 0.00 | 0.00 | 23 | 1012.3 |
| 20260508223034 | 76 | 33 | 7.0 | 24.0 | 0.00 | 0.00 | 0.00 | 22 | 1012.3 |
| 20260508221518 | 76 | 20 | 6.0 | 19.0 | 0.00 | 0.00 | 0.00 | 20 | 1012.3 |
| 20260508220022 | 76 | 345 | 6.0 | 16.0 | 0.00 | 0.00 | 0.00 | 22 | 1012.5 |
| 20260508214516 | 75 | 32 | 5.0 | 18.0 | 0.00 | 0.00 | 0.00 | 21 | 1012.6 |
| 20260508213014 | 75 | 350 | 5.0 | 15.0 | 0.00 | 0.00 | 0.00 | 21 | 1012.8 |
| 20260508211512 | 76 | 317 | 8.0 | 18.0 | 0.00 | 0.00 | 0.00 | 21 | 1012.9 |
| 20260508210010 | 75 | 34 | 5.0 | 16.0 | 0.00 | 0.00 | 0.00 | 22 | 1012.9 |
| 20260508204513 | 75 | 28 | 2.0 | 10.0 | 0.00 | 0.00 | 0.00 | 24 | 1013.1 |
| 20260508203008 | 74 | 314 | 1.0 | 12.0 | 0.00 | 0.00 | 0.00 | 23 | 1013.2 |
| 20260508201508 | 73 | 326 | 4.0 | 11.0 | 0.00 | 0.00 | 0.00 | 22 | 1013.3 |
| 20260508200006 | 74 | 280 | 7.0 | 14.0 | 0.00 | 0.00 | 0.00 | 21 | 1013.4 |
| 20260508194505 | 73 | 236 | 1.0 | 6.0 | 0.00 | 0.00 | 0.00 | 21 | 1013.6 |
| 20260508193003 | 73 | 150 | 0.0 | 4.0 | 0.00 | 0.00 | 0.00 | 22 | 1013.6 |
| 20260508191501 | 70 | 167 | 3.0 | 6.0 | 0.00 | 0.00 | 0.00 | 23 | 1013.7 |
| 20260508190100 | 71 | 70 | 1.0 | 4.0 | 0.00 | 0.00 | 0.00 | 22 | 1014.1 |
| 20260508184600 | 70 | 72 | 3.0 | 6.0 | 0.00 | 0.00 | 0.00 | 23 | 1014.3 |
| 20260508183107 | 70 | 360 | 1.0 | 7.0 | 0.00 | 0.00 | 0.00 | 23 | 1014.5 |
| 20260508181556 | 69 | 68 | 0.0 | 5.0 | 0.00 | 0.00 | 0.00 | 24 | 1014.5 |
| 20260508180110 | 68 | 41 | 1.0 | 4.0 | 0.00 | 0.00 | 0.00 | 23 | 1014.7 |
| 20260508174602 | 68 | 310 | 0.0 | 4.0 | 0.00 | 0.00 | 0.00 | 24 | 1014.7 |
| 20260508173051 | 68 | 334 | 1.0 | 6.0 | 0.00 | 0.00 | 0.00 | 25 | 1014.8 |
| 20260508171550 | 67 | 155 | 0.0 | 2.0 | 0.00 | 0.00 | 0.00 | 26 | 1014.9 |
| 20260508170048 | 66 | 30 | 0.0 | 4.0 | 0.00 | 0.00 | 0.00 | 24 | 1015.0 |
| 20260508164545 | 65 | 353 | 0.0 | 5.0 | 0.00 | 0.00 | 0.00 | 30 | 1014.9 |
| 20260508163040 | 63 | 37 | 0.0 | 3.0 | 0.00 | 0.00 | 0.00 | 31 | 1014.9 |
| 20260508161537 | 62 | 78 | 0.0 | 3.0 | 0.00 | 0.00 | 0.00 | 33 | 1015.0 |
| 20260508160037 | 62 | 342 | 0.0 | 2.0 | 0.00 | 0.00 | 0.00 | 37 | 1015.1 |
| 20260508154531 | 60 | 335 | 0.0 | 3.0 | 0.00 | 0.00 | 0.00 | 39 | 1015.0 |
| 20260508153033 | 58 | 272 | 0.0 | 5.0 | 0.00 | 0.00 | 0.00 | 39 | 1015.1 |
| 20260508151526 | 58 | 7 | 0.0 | 2.0 | 0.00 | 0.00 | 0.00 | 38 | 1015.1 |
| 20260508150026 | 56 | 353 | 0.0 | 2.0 | 0.00 | 0.00 | 0.00 | 47 | 1015.1 |
| 20260508144524 | 56 | 15 | 0.0 | 0.0 | 0.00 | 0.00 | 0.00 | 48 | 1015.0 |
| 20260508143023 | 55 | 15 | 0.0 | 0.0 | 0.00 | 0.00 | 0.00 | 43 | 1015.0 |
| 20260508141522 | 52 | 15 | 0.0 | 1.0 | 0.00 | 0.00 | 0.00 | 49 | 1015.0 |
| 20260508140021 | 50 | 15 | 0.0 | 0.0 | 0.00 | 0.00 | 0.00 | 53 | 1014.7 |
| 20260508134621 | 48 | 15 | 0.0 | 1.0 | 0.00 | 0.00 | 0.00 | 54 | 1014.7 |
| 20260508133020 | 50 | 269 | 0.0 | 0.0 | 0.00 | 0.00 | 0.00 | 45 | 1014.5 |
| 20260508131517 | 51 | 269 | 0.0 | 2.0 | 0.00 | 0.00 | 0.00 | 44 | 1014.3 |
| 20260508130020 | 48 | 294 | 1.0 | 3.0 | 0.00 | 0.00 | 0.00 | 55 | 1014.3 |
| 20260508124512 | 46 | 321 | 0.0 | 2.0 | 0.00 | 0.00 | 0.00 | 59 | 1014.1 |
| 20260508123012 | 46 | 27 | 1.0 | 5.0 | 0.00 | 0.00 | 0.00 | 61 | 1014.0 |
| 20260508121510 | 47 | 30 | 0.0 | 3.0 | 0.00 | 0.00 | 0.00 | 60 | 1013.9 |
| 20260508120022 | 47 | 6 | 2.0 | 4.0 | 0.00 | 0.00 | 0.00 | 60 | 1013.9 |
| 20260508114509 | 47 | 30 | 0.0 | 4.0 | 0.00 | 0.00 | 0.00 | 59 | 1014.0 |
| 20260508113012 | 47 | 24 | 0.0 | 3.0 | 0.00 | 0.00 | 0.00 | 60 | 1013.9 |
| 20260508111507 | 46 | 354 | 0.0 | 5.0 | 0.00 | 0.00 | 0.00 | 62 | 1013.9 |
| 20260508110002 | 47 | 32 | 1.0 | 4.0 | 0.00 | 0.00 | 0.00 | 61 | 1013.8 |
| 20260508104601 | 50 | 15 | 0.0 | 1.0 | 0.00 | 0.00 | 0.00 | 57 | 1013.9 |
| 20260508103057 | 50 | 25 | 1.0 | 3.0 | 0.00 | 0.00 | 0.00 | 57 | 1013.9 |
| 20260508101556 | 49 | 22 | 0.0 | 2.0 | 0.00 | 0.00 | 0.00 | 60 | 1013.7 |
| 20260508100052 | 51 | 27 | 0.0 | 3.0 | 0.00 | 0.00 | 0.00 | 56 | 1013.6 |
| 20260508094555 | 51 | 24 | 1.0 | 3.0 | 0.00 | 0.00 | 0.00 | 57 | 1013.6 |
| 20260508093050 | 52 | 25 | 2.0 | 4.0 | 0.00 | 0.00 | 0.00 | 55 | 1013.5 |